Погода в Мишкином-Ёли

Россия / Республика Коми     62°37′05″N   56°50′05″E
темп.,
°C
ветер,
м/с
пор.,
м/с
влажн.,
%
обл.,
%
осадки,
мм/ч
давл.,
гПа
погр.,
м
24 мая, вт
вт2400:000юв289585 0.0 1003145
03:000вюв26955 0.0 1005114
06:00+5вюв357995 0.0 1006334
09:00+8вюв356958 0.1 10071169
12:00+10юв4763100 0.3 10081439
15:00+9юв4777100 0.9 10091078
18:00+6зюз1297100 1.1 101190
21:00+6в2498100 5.8 1012214
25 мая, ср
ср2500:00+6вюв2698100 0.1 1013216
03:00+5в259899 0.3 1014111
06:00+7в3791100 0.0 1013321
09:00+11в4676100 0.0 1012729
12:00+8всв41092100 2.2 1011810
15:00+8всв51294100 6.9 1008830
18:00+9всв3997100 1.3 1007339
21:00+10всв41496100 1.9 1004558
26 мая, чт
чт2600:00+11в3995100 0.5 1002311
03:00+8юз4897100 1.8 1002359
06:00+8ю3895100 0.2 1005496
09:00+9ю3688100 0.2 1005586
12:00+12юв367479 0.6 10041099
15:00+7ю41287100 1.3 1006928
18:00+8ююз61081100 0.2 10081020
21:00+6ю398695 0.2 1008881
27 мая, пт
пт2700:00+3ю259688 0.0 1009132
03:00+4ююв2496100 0.0 1009144
06:00+7ююз24789 0.0 1009523
09:00+11ююз345480 0.0 10081464
12:00+13ююз3442100 0.0 10072144
15:00+13ююз344814 0.1 10071528
18:00+12ююв255863 0.0 10071168
21:00+9ююв398469 0.1 1008469
28 мая, сб
сб2800:00+6юв3896100 0.0 1007281
03:00+8юв41190100 0.2 1006599
06:00+11юв5107885 0.1 1006960
09:00+12ююв4107373 0.1 10061015
12:00+14ююв51071100 0.3 10071162
15:00+15ююв5106698 0.4 10071351
18:00+15ююв48738 0.4 1007987
21:00+12юв31186100 0.4 1007449